Flag for Kazakhstan Weather past 2 weeks in Aqtobe, Kazakhstan

Now
36 °F

Partly sunny.


Feels Like: 24 °F
Forecast: 42 / 52 °F
Wind: 24 mph from Southwest

Location: Aktjubinsk

Current Time: Oct 21, 2014 at 10:50:36 AM

Latest Report: Oct 21, 2014 at 10:30 AM


Visibility: N/A

Pressure: 29.86 "Hg

Humidity: 93%

Dew point: 34 °F

Location of AqtobeLocation

Historic Weather in Aqtobe — Graph

°F

Aqtobe temperature yesterday

Maximum temperature yesterday: 32 °F (at 12:00 AM)
Minimum temperature yesterday: 21 °F (at 10:00 PM)
Average temperature yesterday: 27 °F

Past Weeks' High & Low Weather Summary

 TemperatureHumidityPressure
High70 °F (Oct 16, 3:00 PM)100% (Oct 6, 9:00 AM)30.60 "Hg (Oct 6, 9:00 AM)
Low21 °F (Oct 20, 10:00 PM)22% (Oct 14, 12:30 PM)29.50 "Hg (Oct 18, 2:00 PM)
Average45 °F69%30.07 "Hg
* Reported Oct 6 9:00 AM — Oct 21 9:30 AM, Aqtobe, Weather by CustomWeather, © 2014

Note: Actual official high and low records may vary slightly from our data, if they occured in-between our weather recording intervals... More about our weather records

Advertising

Aqtobe weather history for previous 24 hours

 ConditionsComfort  
Time TempWeatherWind HumidityBarometerVisibility
9:30 AM
Oct 21
34 °FPartly sunny.26 mph93%29.86 "HgN/A
9:00 AM34 °FMostly cloudy.26 mph93%29.86 "HgN/A
8:30 AM34 °FMostly cloudy.26 mph93%29.86 "HgN/A
8:00 AM32 °FPartly sunny.22 mph93%29.89 "HgN/A
7:30 AM32 °FMostly cloudy.17 mph93%29.89 "HgN/A
7:00 AM30 °FPartly cloudy.17 mph93%29.89 "HgN/A
6:30 AM30 °FMostly cloudy.15 mph93%29.92 "HgN/A
6:00 AM30 °FSnow flurries. Passing clouds.17 mph86%29.92 "HgN/A
5:30 AM28 °FSnow showers. Mostly cloudy.20 mph93%29.92 "Hg1 mi
5:00 AM28 °FLight snow. Overcast.20 mph93%29.92 "HgN/A
4:30 AM28 °FClear.17 mph93%29.95 "Hg10 mi
4:00 AM28 °FOvercast.17 mph93%29.95 "HgN/A
3:30 AM28 °FOvercast.15 mph86%29.95 "HgN/A
3:00 AM28 °FMostly cloudy.15 mph86%29.98 "HgN/A
2:30 AM28 °FOvercast.10 mph86%29.98 "HgN/A
2:00 AM28 °FMostly cloudy.8 mph86%29.98 "HgN/A
1:30 AM27 °FMostly cloudy.8 mph93%29.98 "HgN/A
1:00 AM27 °FClear.13 mph86%29.98 "Hg10 mi
12:30 AM27 °FClear.10 mph86%29.98 "Hg10 mi
12:00 AM25 °FClear.8 mph93%29.98 "Hg10 mi
11:30 PM
Oct 20
23 °FClear.8 mph93%30.01 "Hg10 mi
11:00 PM25 °FClear.6 mph86%30.01 "Hg10 mi
10:30 PM21 °FClear.6 mph93%30.01 "Hg10 mi
10:00 PM21 °FClear.6 mph86%30.01 "Hg10 mi
9:30 PM23 °FClear.6 mph86%29.98 "Hg10 mi
9:00 PM23 °FClear.6 mph86%29.98 "Hg10 mi
8:30 PM23 °FClear.10 mph86%29.98 "Hg10 mi
8:00 PM25 °FPassing clouds.8 mph80%29.98 "HgN/A
7:30 PM27 °FPassing clouds.10 mph74%29.98 "HgN/A
7:00 PM27 °FPassing clouds.15 mph74%29.98 "HgN/A
6:30 PM27 °FPassing clouds.15 mph74%29.95 "HgN/A
6:00 PM27 °FPartly sunny.17 mph69%29.95 "HgN/A
5:30 PM28 °FScattered clouds.17 mph64%29.92 "HgN/A
5:00 PM28 °FPartly sunny.20 mph64%29.92 "HgN/A
4:30 PM28 °FPartly sunny.17 mph64%29.92 "HgN/A
4:00 PM28 °FPartly sunny.20 mph69%29.89 "HgN/A
3:30 PM27 °FPartly sunny.24 mph74%29.89 "HgN/A
3:00 PM27 °FPartly sunny.24 mph69%29.89 "HgN/A
2:30 PM27 °FPartly sunny.24 mph69%29.89 "HgN/A
2:00 PM27 °FPartly sunny.24 mph69%29.86 "HgN/A
1:30 PM27 °FPartly sunny.22 mph74%29.86 "HgN/A
1:00 PM27 °FPartly sunny.22 mph74%29.86 "HgN/A
12:30 PM27 °FPartly sunny.22 mph74%29.86 "HgN/A
12:00 PM27 °FPartly sunny.24 mph74%29.83 "HgN/A
11:30 AM27 °FPartly sunny.22 mph74%29.83 "HgN/A
11:00 AM27 °FPartly sunny.24 mph74%29.80 "HgN/A
10:30 AM27 °FPartly sunny.22 mph80%29.80 "HgN/A
10:00 AM27 °FPartly sunny.24 mph80%29.80 "HgN/A
Weather by CustomWeather, © 2014

See weather overviewHow to use our weather pages